This is the latest recevied weather packets stored in our database for station/object VK3AFQ-13. If no packets are shown the sender has not sent any weather packets the latest 10 day(s).
| Time | Temp. | Humidity | Pressure | Rain* | Wind** | Luminosity | Snow |
|---|---|---|---|---|---|---|---|
| 1777818663 | 10.56° C | 84% | 1013.8 hPa | - | - | - | - |
| 1777817764 | 10.56° C | 84% | 1013.9 hPa | - | - | - | - |
| 1777816862 | 11.11° C | 83% | 1013.7 hPa | - | - | - | - |
| 1777815964 | 11.67° C | 81% | 1013.7 hPa | - | - | - | - |
| 1777815064 | 11.67° C | 78% | 1014.1 hPa | - | - | - | - |
| 1777814164 | 11.67° C | 79% | 1014.3 hPa | - | - | - | - |
| 1777813262 | 11.67° C | 81% | 1014.4 hPa | - | - | - | - |
| 1777812364 | 12.22° C | 80% | 1014.4 hPa | - | - | - | - |
| 1777811464 | 12.22° C | 79% | 1014.3 hPa | - | - | - | - |
| 1777810564 | 13.33° C | 77% | 1014.5 hPa | - | - | - | - |
| 1777809662 | 13.33° C | 76% | 1014.6 hPa | - | - | - | - |
| 1777808764 | 13.89° C | 76% | 1014.6 hPa | - | - | - | - |
| 1777807863 | 13.89° C | 75% | 1014.7 hPa | - | - | - | - |
| 1777806963 | 14.44° C | 74% | 1014.4 hPa | - | - | - | - |
| 1777806062 | 14.44° C | 73% | 1014.4 hPa | - | - | - | - |
| 1777805163 | 15° C | 73% | 1014.4 hPa | - | - | - | - |
| 1777804264 | 15° C | 74% | 1014.1 hPa | - | - | - | - |
| 1777803364 | 15.56° C | 76% | 1014.5 hPa | - | - | - | - |
| 1777802462 | 15.56° C | 75% | 1014.2 hPa | - | - | - | - |
| 1777801564 | 15.56° C | 75% | 1013.9 hPa | - | - | - | - |
| 1777800664 | 15.56° C | 77% | 1014 hPa | - | - | - | - |
| 1777799764 | 15.56° C | 77% | 1013.8 hPa | - | - | - | - |
| 1777798862 | 15.56° C | 77% | 1013.9 hPa | - | - | - | - |
| 1777797963 | 15.56° C | 75% | 1013.5 hPa | - | - | - | - |
| 1777797064 | 16.11° C | 75% | 1013.5 hPa | - | - | - | - |
* Rain since midnight (hover to see other rain measurements)
** Current wind speed in m/s (hover to see current wind gust speed)